Rotterdam, Netherlands

9:55 AM CEST on May 28, 2017 (GMT +0200)
Rotterdam

Weather History for EHRD - November, 2012

Change the Weather History Date:

Wednesday, November 7, 2012

  Actual Average Record
Temperature  
Mean Temperature 48 °F -  
Max Temperature 51 °F 47 °F 65 °F (2015)
Min Temperature 46 °F 38 °F 35 °F (1998)
Degree Days  
Heating Degree Days 16    
Moisture  
Dew Point 48 °F    
Average Humidity 90    
Maximum Humidity 100    
Minimum Humidity 75    
Precipitation  
Precipitation 0.00 in - - ()
Sea Level Pressure  
Sea Level Pressure 30.16 in    
Wind  
Wind Speed 11 mph ()    
Max Wind Speed 20 mph    
Max Gust Speed -    
Visibility 5.8 miles    
Events Rain    
Averages and records for this station are not official NWS values.
T = Trace of Precipitation, MM = Missing Value Source: Averaged Metar Reports

Daily Weather History Graph

Daily Weather History Graph

Search for Another Location

Airport or City:

Trip Planner

Search our weather history database for the weather conditions in past years. The results will help you decide how hot, cold, wet, or windy it might be!

Date:

Astronomy

Nov. 07, 2012 Rise Set
Actual Time 7:48 AM CET 5:02 PM CET
Civil Twilight 7:11 AM CET 5:39 PM CET
Nautical Twilight 6:31 AM CET 6:19 PM CET
Astronomical Twilight 5:52 AM CET 6:58 PM CET
Moon No Moon Rise 1:50 PM CET (11/7)
Length of Visible Light 10h 27m
Length of Day
9h 14m
Last Quarter, 46% of the Moon is Illuminated
Nov 7
Last Quarter
Nov 13
New
Nov 20
First Quarter
Nov 28
Full
Dec 6
Last Quarter

Hourly Weather History & Observations

Time (CET) Temp. Dew Point Humidity Pressure Visibility Wind Dir Wind Speed Gust Speed Precip Events Conditions
12:25 AM 50.0 °F 50.0 °F 100% 30.04 in - West 11.5 mph - N/A   Drizzle
12:55 AM 51.8 °F 50.0 °F 94% 30.06 in 5.0 mi West 9.2 mph - N/A Rain Drizzle
1:00 AM 51 °F 50 °F 97% 30.07 in 4 mi West 11.2 mph - - Rain Rain
1:25 AM 51.8 °F 50.0 °F 94% 30.06 in 3.1 mi West 10.4 mph - N/A Rain Light Rain
1:55 AM 51.8 °F 51.8 °F 100% 30.06 in 3.1 mi WNW 11.5 mph - N/A   Drizzle
2:25 AM 51.8 °F 51.8 °F 100% 30.06 in 3.1 mi WNW 10.4 mph - N/A   Drizzle
2:55 AM 51.8 °F 51.8 °F 100% 30.09 in 5.6 mi WNW 9.2 mph - N/A   Overcast
3:25 AM 51.8 °F 51.8 °F 100% 30.09 in 3.1 mi WNW 8.1 mph - N/A Rain Light Rain
3:55 AM 51.8 °F 51.8 °F 100% 30.09 in 3.7 mi West 8.1 mph - N/A   Drizzle
4:00 AM 51 °F 51 °F 100% 30.11 in 4 mi West 6.7 mph - - Rain Rain
4:25 AM 51.8 °F 51.8 °F 100% 30.09 in 6.2 mi WNW 8.1 mph - N/A   Overcast
4:55 AM 51.8 °F 51.8 °F 100% 30.12 in 6.2 mi WNW 9.2 mph - N/A   Overcast
5:25 AM 51.8 °F 51.8 °F 100% 30.12 in 6.2 mi West 9.2 mph - N/A   Overcast
5:55 AM 51.8 °F 50.0 °F 94% 30.12 in 6.2 mi West 6.9 mph - N/A   Overcast
6:25 AM 51.8 °F 50.0 °F 94% 30.12 in 6.2 mi West 8.1 mph - N/A   Overcast
6:55 AM 51.8 °F 51.8 °F 100% 30.15 in 2.5 mi West 9.2 mph - N/A   Overcast
7:00 AM 51 °F 51 °F 99% 30.16 in 2 mi West 8.9 mph - -   Mist
7:25 AM 50.0 °F 50.0 °F 100% 30.15 in 1.7 mi West 9.2 mph - N/A   Mostly Cloudy
7:55 AM 50.0 °F 50.0 °F 100% 30.15 in - West 8.1 mph - N/A   Mostly Cloudy
8:25 AM 50.0 °F 50.0 °F 100% 30.18 in 5.0 mi West 8.1 mph - N/A   Overcast
8:55 AM 50.0 °F 50.0 °F 100% 30.18 in 5.6 mi West 8.1 mph - N/A   Overcast
9:25 AM 51.8 °F 50.0 °F 94% 30.18 in 6.2 mi WSW 8.1 mph - N/A   Mostly Cloudy
9:55 AM 51.8 °F 48.2 °F 88% 30.18 in 6.2 mi West 9.2 mph - N/A   Overcast
10:00 AM 51 °F 49 °F 90% 30.21 in 7 mi WSW 6.7 mph - -   Overcast
10:25 AM 51.8 °F 48.2 °F 88% 30.18 in 6.2 mi WSW 8.1 mph - N/A   Overcast
10:55 AM 51.8 °F 48.2 °F 88% 30.21 in 6.2 mi WSW 11.5 mph - N/A   Mostly Cloudy
11:25 AM 51.8 °F 48.2 °F 88% 30.21 in 6.2 mi WSW 11.5 mph - N/A   Overcast
11:55 AM 51.8 °F 48.2 °F 88% 30.21 in 6.2 mi WSW 12.7 mph - N/A   Overcast
12:25 PM 51.8 °F 46.4 °F 82% 30.21 in 6.2 mi WSW 13.8 mph - N/A   Overcast
12:55 PM 50.0 °F 46.4 °F 87% 30.21 in 6.2 mi WSW 15.0 mph - N/A   Overcast
1:00 PM 51 °F 46 °F 77% 30.22 in 9 mi WSW 17.9 mph - -   Partly Cloudy
1:25 PM 50.0 °F 46.4 °F 87% 30.21 in 6.2 mi WSW 15.0 mph - N/A   Overcast
1:55 PM 50.0 °F 46.4 °F 87% 30.21 in 6.2 mi WSW 15.0 mph - N/A   Overcast
2:25 PM 50.0 °F 46.4 °F 87% 30.21 in 6.2 mi WSW 15.0 mph - N/A   Overcast
2:55 PM 50.0 °F 44.6 °F 82% 30.21 in 6.2 mi WSW 15.0 mph - N/A   Overcast
3:25 PM 50.0 °F 44.6 °F 82% 30.21 in 6.2 mi WSW 16.1 mph - N/A   Overcast
3:55 PM 50.0 °F 44.6 °F 82% 30.21 in 6.2 mi WSW 15.0 mph - N/A   Overcast
4:00 PM 50 °F 45 °F 78% 30.21 in 9 mi WSW 13.4 mph - -   Overcast
4:25 PM 50.0 °F 44.6 °F 82% 30.21 in 6.2 mi WSW 15.0 mph - N/A   Mostly Cloudy
4:55 PM 50.0 °F 44.6 °F 82% 30.18 in 6.2 mi WSW 15.0 mph - N/A   Mostly Cloudy
5:25 PM 50.0 °F 44.6 °F 82% 30.18 in 6.2 mi SW 16.1 mph - N/A   Overcast
5:55 PM 50.0 °F 46.4 °F 87% 30.18 in 6.2 mi WSW 13.8 mph - N/A   Mostly Cloudy
6:25 PM 50.0 °F 46.4 °F 87% 30.18 in 6.2 mi WSW 16.1 mph - N/A   Overcast
6:55 PM 50.0 °F 46.4 °F 87% 30.18 in 6.2 mi WSW 16.1 mph - N/A   Overcast
7:00 PM 50 °F 46 °F 79% 30.20 in 8 mi WSW 15.7 mph - -   Partly Cloudy
7:25 PM 50.0 °F 46.4 °F 87% 30.18 in 6.2 mi WSW 16.1 mph - N/A   Mostly Cloudy
7:55 PM 50.0 °F 46.4 °F 87% 30.18 in 6.2 mi WSW 16.1 mph - N/A   Mostly Cloudy
8:25 PM 50.0 °F 46.4 °F 87% 30.18 in 6.2 mi WSW 18.4 mph - N/A   Overcast
8:55 PM 50.0 °F 46.4 °F 87% 30.18 in 6.2 mi WSW 12.7 mph - N/A   Overcast
9:25 PM 50.0 °F 44.6 °F 82% 30.18 in 6.2 mi WSW 17.3 mph - N/A   Overcast
9:55 PM 50.0 °F 44.6 °F 82% 30.18 in 6.2 mi WSW 17.3 mph - N/A   Overcast
10:00 PM 50 °F 44 °F 75% 30.19 in 11 mi WSW 15.7 mph - -   Overcast
10:25 PM 50.0 °F 44.6 °F 82% 30.18 in 6.2 mi WSW 16.1 mph - N/A   Overcast
10:55 PM 50.0 °F 44.6 °F 82% 30.15 in 6.2 mi WSW 17.3 mph - N/A   Overcast
11:25 PM 50.0 °F 44.6 °F 82% 30.15 in 6.2 mi WSW 19.6 mph - N/A   Overcast
11:55 PM 50.0 °F 44.6 °F 82% 30.15 in 6.2 mi WSW 18.4 mph - N/A   Overcast